Regional Weather Roundup
Issued by NWS

Home | Current Version | Previous Version | Text Only | Print | Product List | Glossary Off
Versions: 1 2 3 4 5 6 7 8 9 10 11 12 13 14 15 16 17 18 19 20 21 22 23 24 25 26 27 28 29 30 31 32 33 34 35 36 37 38 39 40 41 42 43 44 45 46 47 48 49 50

434
ASUS43 KDMX 212001
RWRIA

WEATHER ROUNDUP FOR IOWA
NATIONAL WEATHER SERVICE DES MOINES IA
200 PM CST SAT JAN 21 2017

NOTE: "FAIR" INDICATES FEW OR NO CLOUDS BELOW 12,000 FEET WITH NO
SIGNIFICANT WEATHER AND/OR OBSTRUCTIONS TO VISIBILITY.

* - THESE STATIONS ARE NOT NWS STATIONS...THUS NOT UNDER NWS
QUALITY CONTROL.  THEY ALSO DO NOT REPORT WEATHER SUCH
AS PRECIPITATION OR FOG.

IAZ001>003-012>014-020>022-031>034-043>046-212100-
   NORTHWEST IOWA

CITY           SKY/WX    TMP DP  RH WIND       PRES   REMARKS
CARROLL *      CLOUDY    43  41  93 W13G18    29.41S
CHEROKEE *     CLOUDY    38  38 100 W7        29.40R WCI  33
DENISON *      PTSUNNY   43  39  87 SW9G15    29.40S
LE MARS *      CLOUDY    36  34  93 W10       29.43R WCI  28
ORANGE CITY *  CLOUDY    34  34 100 W14       29.41R WCI  24
SHELDON *      CLOUDY    36  36 100 W14       29.38R WCI  27
SIOUX CITY     CLOUDY    44  38  79 NW7       29.41S
SPENCER        FOG       38  38 100 W8        29.37F VSB 1/4 WCI  32
STORM LAKE *   PTSUNNY   37  37 100 SW12      29.40R FOG     WCI  30
$$

IAZ055>058-069>071-079>083-090>094-212100-
   SOUTHWEST IOWA

CITY           SKY/WX    TMP DP  RH WIND       PRES   REMARKS
ATLANTIC *     CLOUDY    43  41  93 SW14      29.44S
AUDUBON *      CLOUDY    41  39  93 SW8       29.43S
CLARINDA *     PTSUNNY   46  43  87 SW10      29.47F
COUNCIL BLFS * MOSUNNY   48  45  87 SW12      29.43S
CRESTON *      CLOUDY    43  43 100 SW12G18   29.46S
HARLAN  *      CLOUDY    45  45 100 SW9       29.46S
LAMONI         CLOUDY    44  41  89 SW10      29.46F
RED OAK *      PTSUNNY   45  41  87 SW12      29.46S
SHENANDOAH *   MOSUNNY   46  43  87 SW9G16    29.46F
$$

IAZ047>049-059>061-072>074-084-212100-
   CENTRAL IOWA

CITY           SKY/WX    TMP DP  RH WIND       PRES   REMARKS
AMES           CLOUDY    44  44 100 SW13      29.43R FOG
ANKENY *       CLOUDY    46  41  81 SW10G20   29.45S
BOONE *        CLOUDY    43  43 100 SW7       29.41S
CHARITON *     CLOUDY    45  41  87 SW12      29.46S
DES MOINES     CLOUDY    47  41  80 SW17      29.44S
GRINNELL*      CLOUDY    44  43  98 SW13      29.45S FOG
KNOXVILLE *    CLOUDY    45  41  87 SW9G15    29.44F
MARSHALLTOWN   CLOUDY    45  44  97 SW10      29.42R
NEWTON *       CLOUDY    45  43  93 SW13      29.44R FOG
PELLA *        CLOUDY    45  42  89 SW10G17   29.47S
PERRY *        CLOUDY    46  44  95 SW15      29.43R
$$

IAZ004>006-015-016-023>025-035-036-212100-
   NORTH CENTRAL IOWA

CITY           SKY/WX    TMP DP  RH WIND       PRES   REMARKS
ALGONA *       CLOUDY    41  41 100 SW8       29.38S FOG
CLARION *      FOG       41  41 100 SW12      29.41R VSB 1/4
ESTHERVILLE    CLOUDY    37  37 100 SW7       29.37S FOG     WCI  32
FORT DODGE *   CLOUDY    41  37  87 SW10      29.41R
MASON CITY     FOG       38  38 100 SW7       29.39F VSB 3/4 WCI  33
FOREST CITY *  FOG       37  37 100 SW3       29.39R VSB<1/4
WEBSTER CITY * CLOUDY    41 N/A N/A SW13      29.39R HAZE
IOWA FALLS *   CLOUDY    42  41  97 SW8       29.42R FOG
$$

IAZ007>011-017>019-026>030-037>042-050>054-066-212100-
   NORTHEAST IOWA

CITY           SKY/WX    TMP DP  RH WIND       PRES   REMARKS
CEDAR RAPIDS   CLOUDY    43  43 100 S9        29.44R FOG
CHARLES CITY * FOG       39  39 100 S7        29.40R VSB<1/4 WCI  34
CLINTON *      CLOUDY    44  43  96 SW9       29.47R FOG
DECORAH *      FOG       37  37 100 SE6       29.39R VSB<1/4 WCI  33
DUBUQUE        CLOUDY    44  43  96 SW7       29.43S FOG
MONTICELLO *   CLOUDY    45  45 100 SW10G26   29.44R FOG
OELWEIN *      FOG       41  41 100 S8        29.42R VSB<1/4
WATERLOO       CLOUDY    45  42  89 MISG      29.41S
$$

IAZ064-065-067-068-078-212100-
   EAST CENTRAL IOWA

CITY           SKY/WX    TMP DP  RH WIND       PRES   REMARKS
DAVENPORT      CLOUDY    45  42  89 W12       29.46S
IOWA CITY      CLOUDY    45  43  93 SW9       29.48R FOG
MUSCATINE *    CLOUDY    45  43  93 W9        29.48S
QUAD CITIES    MOSUNNY   50  43  77 W13       29.45S
$$

IAZ062-063-075>077-085>089-095>099-212100-
   SOUTHEAST IOWA

CITY           SKY/WX    TMP DP  RH WIND       PRES   REMARKS
BURLINGTON     MOSUNNY   53  46  77 SW13      29.46S
FAIRFIELD *    CLOUDY    43  43 100 SW15      29.47S
FORT MADISON * SUNNY     55  55 100 SW13      29.48S
KEOKUK *       PTSUNNY   54 N/A N/A SW13      29.47S
OSKALOOSA *    CLOUDY    43  43  99 SW16      29.47S FOG
OTTUMWA        CLOUDY    45  42  89 SW14      29.46S
WASHINGTON *   CLOUDY    45  45 100 SW7       29.47F FOG
$$

ABBREVIATIONS USED IN REMARKS
   TC - TEMPERATURES IN CELSIUS
  WCI - WIND CHILL INDEX
   HX - HEAT INDEX
  VSB - VISIBILITY
$$





USA.gov is the U.S. government's official web portal to all federal, state and local government web resources and services.